Location: Ahausen
(50.4985°N, 8.2722°E)
Time: 15:26:25
(UTC+00:00)

CZ-4C R/B - Pass Details

Date: 18 September 2020
Orbit: 627 x 1375 km, 63.4° (Epoch: 21 October)

Event Time Altitude Azimuth Distance (km) Brightness Sun altitude
Exits shadow 23:01:58 26° 38° (NE) 1,722 4.1 -38.0°
Drops below altitude 10° 23:04:42 10° 42° (NE) 2,721 5.2 -38.0°
Sets 23:07:34 0° 45° (NE) 3,798 6.1 -38.0°
